Location: Buckeye Ditch
(40.9104°N, 122.9517°W)
Time: 16:01:31
(UTC+00:00)

A-11 Canister half - Pass Details

Date: 20 May 2025
Orbit: 1515 x 1684 km, 47.2° (Epoch: 14 June)

Event Time Altitude Azimuth Distance (km) Brightness Sun altitude
Exits shadow 07:55:07 25° 237° (WSW) 2,737 10.0 -29.0°
Maximum altitude 08:01:20 86° 151° (SSE) 1,549 8.8 -29.0°
Drops below altitude 10° 08:10:38 10° 64° (ENE) 3,685 11.3 -29.0°
Sets 08:13:39 0° 64° (ENE) 4,662 11.9 -29.0°
